Location: Huesca
(42.1318°N, 0.4078°W)
Time: 17:43:59
(UTC+02:00)

Explorer 7 - Pass Details

Date: 17 July 2024
Orbit: 447 x 575 km, 50.3° (Epoch: 24 April)

Event Time Altitude Azimuth Distance (km) Brightness Sun altitude
Exits shadow 04:13:17 38° 265° (W) 950 7.7 -20.4°
Maximum altitude 04:14:54 64° 333° (NNW) 679 7.3 -20.3°
Drops below altitude 10° 04:19:21 10° 55° (NE) 1,945 10.6 -19.8°
Enters shadow 05:14:57 -70° 247° (WSW) 12,510 13.6 -13.4°
